Location: Morlupo
(42.1333°N, 12.5000°E)
Time: 04:08:39
(UTC+00:00)

Ariane Rocket - Pass Details

Date: 26 January 2021
Orbit: 760 x 770 km, 98.7° (Epoch: 03 March)

Event Time Altitude Azimuth Distance (km) Brightness Sun altitude
Exits shadow 19:26:13 12° 343° (NNW) 2,210 5.6 -35.0°
Drops below altitude 10° 19:26:29 10° 343° (NNW) 2,316 5.7 -35.1°
Sets 19:28:48 0° 345° (NNW) 3,248 6.5 -35.5°
